Location: Clyde
(45.1830°S, 169.3170°E)
Time: 17:36:43
(UTC+12:00)

Cosmos 1076 Rocket - Pass Details

Date: 14 May 2021
Orbit: 588 x 613 km, 82.5° (Epoch: 16 June)

Event Time Altitude Azimuth Distance (km) Brightness Sun altitude
Rises 18:44:30 0° 5° (N) 2,823 7.0 -14.1°
Reaches altitude 10° 18:46:43 10° 9° (N) 1,933 6.1 -14.5°
Maximum altitude 18:50:52 53° 86° (E) 745 3.6 -15.2°
Drops below altitude 10° 18:55:08 10° 162° (SSE) 1,975 5.9 -15.9°
Enters shadow 18:56:31 - 165° (SSE) 2,528 6.4 -16.1°
